User: anonymous   Login
Location: Ostrava
(49.8330°N, 18.2830°E)
Time: 14:51:38
(UTC+01:00)
Language:

Cosmos 1766 - Orbit

View from above orbital plane
View from above orbital plane
View from above satellite
View from above satellite

Ground track
Ground track

The orbit data is extracted from the following two-line orbital elements,

1 16881U 86055A   14327.18804890  .00005261  00000-0  35272-3 0   204
2 16881 082.5132 218.5492 0013441 039.8405 320.3807 15.06601794540135
Epoch (UTC): 23 November 2014 04:30:47
Eccentricity: 0.0013441
inclination: 82.5132°
perigee height: 537 km
apogee height: 556 km
right ascension of ascending node: 218.5492°
argument of perigee: 39.8405°
revolutions per day: 15.06601794
mean anomaly at epoch: 320.3807°
orbit number at epoch: 54013

The dashed part of the orbit path shows where the satellite is in the earth's shadow,  

DLR